Regional Weather Roundup
Issued by NWS

Home | Current Version | Previous Version | Text Only | Print | Product List | Glossary Off
Versions: 1 2 3 4 5 6 7 8 9 10 11 12 13 14 15 16 17 18 19 20 21 22 23 24 25 26 27 28 29 30 31 32 33 34 35 36 37 38 39 40 41 42 43 44 45 46 47 48 49 50

101
ASUS45 KBOI 222310
RWRID

IDAHO REGIONAL WEATHER ROUNDUP
NATIONAL WEATHER SERVICE BOISE ID
400 PM MST WED NOV 22 2017

NOTE: "FAIR" INDICATES FEW OR NO CLOUDS BELOW 12000 FEET
WITH NO SIGNIFICANT WEATHER AND/OR OBSTRUCTIONS TO VISIBILITY

IDZ012-014-230000-
SOUTHWEST IDAHO


CITY           SKY/WX    TMP DP  RH WIND       PRES   REMARKS
BOISE          CLOUDY    60  51  72 E6        30.24F
CALDWELL       CLOUDY    53  51  93 W6        30.25F
MOUNTAIN HOME  CLOUDY    63  53  71 SE7       30.25F
$$

IDZ016-017-230000-
SOUTHCENTRAL IDAHO


CITY           SKY/WX    TMP DP  RH WIND       PRES   REMARKS
BURLEY         PTCLDY    65  43  44 CALM      30.32R
JEROME         PTCLDY    66  48  52 N6        30.32S
TWIN FALLS     PTCLDY    66  45  46 CALM      30.32S
$$

IDZ019>023-230000-
SOUTHEAST IDAHO


CITY           SKY/WX    TMP DP  RH WIND       PRES   REMARKS
IDAHO FALLS    CLOUDY    52  44  74 VRB3      30.37S
POCATELLO      CLOUDY    62  43  49 SW13      30.35S
REXBURG        CLOUDY    49  43  80 N6        30.37S
$$

IDZ006-010-011-018-031-032-230000-
CENTRAL IDAHO MOUNTAINS


CITY           SKY/WX    TMP DP  RH WIND       PRES   REMARKS
MCCALL         CLOUDY    50  48  93 CALM      30.27F
HAILEY         PTCLDY    54  48  82 E6        30.37S
STANLEY          N/A     44  40  85 CALM      30.39S
SALMON         CLOUDY    44  41  89 CALM      30.32F
CHALLIS        PTCLDY    55  42  61 NE3       30.30F
$$

IDZ002-004-006-007-026-230000-
NORTHERN IDAHO


CITY           SKY/WX    TMP DP  RH WIND       PRES   REMARKS
LEWISTON       CLOUDY    59  55  87 NE3       30.10F
LOWELL           N/A     48  47  96 VRB3      30.23S
COEUR D`ALENE  CLOUDY    55  52  89 S9        30.11F
MULLAN PASS    LGT RAIN  42  40  92 VRB7      30.19S VSB 1/4
$$




USA.gov is the U.S. government's official web portal to all federal, state and local government web resources and services.